| time (UTC) | temp C | wind direction | speed KPH | gust KPH | rain 1hr cm | rain 24hr cm | rain mn cm | humidity % | barometer mb |
| 20260507131018 | 16 | 270 | 1.6 | 3.2 | 0.00 | 0.00 | 0.00 | 57 | 1016.1 |
| 20260507130018 | 16 | 0.0 | 0.0 | 0.00 | 0.00 | 0.00 | 60 | 1016.1 | |
| 20260507125018 | 16 | 0.0 | 3.2 | 0.00 | 0.00 | 0.00 | 61 | 1016.1 | |
| 20260507124017 | 15 | 0.0 | 3.2 | 0.00 | 0.00 | 0.00 | 61 | 1016.1 | |
| 20260507123018 | 15 | 338 | 1.6 | 3.2 | 0.00 | 0.00 | 0.00 | 59 | 1016.1 |
| 20260507122018 | 16 | 0.0 | 3.2 | 0.00 | 0.03 | 0.00 | 61 | 1016.1 | |
| 20260507121017 | 16 | 248 | 1.6 | 3.2 | 0.00 | 0.03 | 0.00 | 53 | 1016.1 |
| 20260507120018 | 16 | 0.0 | 1.6 | 0.00 | 0.03 | 0.00 | 59 | 1016.0 | |
| 20260507115027 | 16 | 338 | 1.6 | 6.4 | 0.00 | 0.03 | 0.00 | 59 | 1016.0 |
| 20260507114018 | 16 | 23 | 1.6 | 3.2 | 0.00 | 0.03 | 0.00 | 58 | 1016.0 |
| 20260507113018 | 15 | 315 | 3.2 | 8.0 | 0.00 | 0.05 | 0.00 | 60 | 1016.1 |
| 20260507112017 | 15 | 338 | 1.6 | 8.0 | 0.00 | 0.05 | 0.00 | 61 | 1016.2 |
| 20260507111018 | 15 | 0.0 | 3.2 | 0.00 | 0.05 | 0.00 | 63 | 1016.3 | |
| 20260507110017 | 15 | 90 | 1.6 | 4.8 | 0.00 | 0.05 | 0.00 | 62 | 1016.4 |
| 20260507105027 | 16 | 338 | 1.6 | 6.4 | 0.00 | 0.08 | 0.00 | 63 | 1016.4 |
| 20260507104027 | 16 | 113 | 1.6 | 8.0 | 0.00 | 0.08 | 0.00 | 67 | 1016.5 |
| 20260507103017 | 15 | 90 | 1.6 | 4.8 | 0.00 | 0.08 | 0.00 | 64 | 1016.4 |
| 20260507102018 | 15 | 293 | 1.6 | 4.8 | 0.00 | 0.10 | 0.00 | 67 | 1016.4 |
| 20260507101028 | 14 | 0 | 1.6 | 4.8 | 0.00 | 0.10 | 0.00 | 70 | 1016.5 |
| 20260507100018 | 13 | 0.0 | 3.2 | 0.00 | 0.13 | 0.00 | 71 | 1016.5 | |
| 20260507095017 | 13 | 315 | 1.6 | 4.8 | 0.00 | 0.13 | 0.00 | 72 | 1016.5 |
| 20260507094027 | 14 | 0.0 | 3.2 | 0.00 | 0.13 | 0.00 | 69 | 1016.5 | |
| 20260507093019 | 14 | 0.0 | 1.6 | 0.00 | 0.15 | 0.00 | 69 | 1016.5 | |
| 20260507092017 | 14 | 0.0 | 4.8 | 0.00 | 0.15 | 0.00 | 67 | 1016.4 | |
| 20260507091017 | 15 | 0.0 | 3.2 | 0.00 | 0.15 | 0.00 | 66 | 1016.5 | |
| 20260507090017 | 15 | 0.0 | 3.2 | 0.00 | 0.18 | 0.00 | 74 | 1016.4 | |
| 20260507085017 | 14 | 180 | 1.6 | 4.8 | 0.00 | 0.18 | 0.00 | 75 | 1016.3 |
| 20260507084017 | 14 | 338 | 1.6 | 4.8 | 0.00 | 0.20 | 0.00 | 75 | 1016.3 |
| 20260507083017 | 15 | 338 | 1.6 | 3.2 | 0.00 | 0.20 | 0.00 | 78 | 1016.3 |
| 20260507082017 | 13 | 68 | 1.6 | 3.2 | 0.00 | 0.23 | 0.00 | 82 | 1016.3 |
| 20260507081018 | 12 | 338 | 1.6 | 4.8 | 0.00 | 0.23 | 0.00 | 87 | 1016.3 |
| 20260507080027 | 11 | 0.0 | 0.0 | 0.00 | 0.25 | 0.00 | 88 | 1016.3 | |
| 20260507075017 | 11 | 0.0 | 3.2 | 0.00 | 0.25 | 0.00 | 88 | 1016.3 | |
| 20260507074018 | 10 | 0.0 | 1.6 | 0.00 | 0.28 | 0.00 | 88 | 1016.3 | |
| 20260507073018 | 10 | 0.0 | 0.0 | 0.00 | 0.28 | 0.00 | 89 | 1016.2 | |
| 20260507072017 | 10 | 0.0 | 1.6 | 0.00 | 0.30 | 0.00 | 89 | 1016.2 | |
| 20260507071017 | 10 | 0.0 | 1.6 | 0.00 | 0.30 | 0.00 | 89 | 1016.1 | |
| 20260507070017 | 9 | 0.0 | 1.6 | 0.00 | 0.33 | 0.00 | 89 | 1016.0 | |
| 20260507065017 | 9 | 0.0 | 1.6 | 0.00 | 0.33 | 0.00 | 89 | 1016.0 | |
| 20260507064028 | 8 | 0.0 | 0.0 | 0.00 | 0.36 | 0.00 | 89 | 1015.9 | |
| 20260507063017 | 8 | 0.0 | 1.6 | 0.00 | 0.38 | 0.00 | 89 | 1015.9 | |
| 20260507062017 | 8 | 0.0 | 1.6 | 0.00 | 0.38 | 0.00 | 90 | 1015.8 | |
| 20260507061019 | 8 | 0.0 | 0.0 | 0.00 | 0.41 | 0.00 | 89 | 1015.8 | |
| 20260507060017 | 8 | 0.0 | 0.0 | 0.00 | 0.41 | 0.00 | 90 | 1015.8 | |
| 20260507055018 | 8 | 0.0 | 0.0 | 0.00 | 0.43 | 0.00 | 90 | 1015.7 | |
| 20260507054027 | 8 | 0.0 | 0.0 | 0.00 | 0.46 | 0.00 | 90 | 1015.7 | |
| 20260507053028 | 8 | 0.0 | 0.0 | 0.00 | 0.46 | 0.00 | 90 | 1015.6 | |
| 20260507052017 | 7 | 0.0 | 0.0 | 0.00 | 0.48 | 0.00 | 90 | 1015.5 | |
| 20260507051019 | 7 | 0.0 | 0.0 | 0.00 | 0.51 | 0.00 | 90 | 1015.4 | |
| 20260507050017 | 7 | 0.0 | 1.6 | 0.00 | 0.53 | 0.00 | 90 | 1015.3 | |
| 20260507045027 | 7 | 0.0 | 0.0 | 0.00 | 0.53 | 0.00 | 89 | 1015.2 | |
| 20260507044017 | 7 | 0.0 | 0.0 | 0.00 | 0.56 | 0.00 | 89 | 1015.2 | |
| 20260507043020 | 7 | 0.0 | 0.0 | 0.00 | 0.58 | 0.00 | 90 | 1015.1 | |
| 20260507042017 | 7 | 0.0 | 0.0 | 0.00 | 0.61 | 0.00 | 90 | 1015.0 | |
| 20260507041017 | 7 | 0.0 | 0.0 | 0.00 | 0.61 | 0.00 | 90 | 1015.0 | |
| 20260507040017 | 7 | 0.0 | 0.0 | 0.00 | 0.64 | 0.00 | 90 | 1014.9 | |
| 20260507035017 | 7 | 0.0 | 0.0 | 0.00 | 0.66 | 0.00 | 90 | 1014.9 | |
| 20260507034017 | 7 | 0.0 | 0.0 | 0.00 | 0.69 | 0.00 | 90 | 1014.9 | |
| 20260507033017 | 7 | 0.0 | 0.0 | 0.00 | 0.69 | 0.00 | 90 | 1014.8 | |
| 20260507032017 | 7 | 0.0 | 0.0 | 0.00 | 0.71 | 0.00 | 90 | 1014.8 | |
| 20260507031017 | 7 | 0.0 | 0.0 | 0.00 | 0.74 | 0.00 | 90 | 1014.8 | |
| 20260507030018 | 7 | 0.0 | 0.0 | 0.00 | 0.76 | 0.00 | 90 | 1014.9 | |
| 20260507025016 | 7 | 0.0 | 0.0 | 0.00 | 0.79 | 0.00 | 90 | 1014.9 | |
| 20260507024027 | 7 | 0.0 | 0.0 | 0.00 | 0.79 | 0.00 | 89 | 1015.0 | |
| 20260507023016 | 7 | 0.0 | 0.0 | 0.00 | 0.79 | 0.00 | 89 | 1014.9 | |
| 20260507022017 | 7 | 0.0 | 0.0 | 0.00 | 0.81 | 0.00 | 89 | 1014.9 | |
| 20260507021027 | 7 | 0.0 | 0.0 | 0.00 | 0.84 | 0.00 | 89 | 1014.8 | |
| 20260507020016 | 7 | 0.0 | 0.0 | 0.00 | 0.86 | 0.00 | 90 | 1014.8 | |
| 20260507015016 | 7 | 0.0 | 0.0 | 0.00 | 0.86 | 0.00 | 90 | 1014.7 | |
| 20260507014017 | 7 | 0.0 | 0.0 | 0.00 | 0.89 | 0.00 | 90 | 1014.7 | |
| 20260507013016 | 7 | 0.0 | 1.6 | 0.00 | 0.91 | 0.00 | 90 | 1014.7 | |
| 20260507012016 | 7 | 0.0 | 0.0 | 0.00 | 0.94 | 0.00 | 89 | 1014.7 | |
| 20260507010128 | 7 | 0.0 | 0.0 | 0.00 | 0.97 | 0.00 | 89 | 1014.6 | |
| 20260507005016 | 7 | 0.0 | 0.0 | 0.00 | 0.99 | 0.00 | 89 | 1014.5 | |
| 20260507004017 | 7 | 0.0 | 1.6 | 0.00 | 1.02 | 0.00 | 89 | 1014.5 | |
| 20260507003026 | 7 | 0.0 | 1.6 | 0.00 | 1.04 | 0.00 | 89 | 1014.4 | |
| 20260507002016 | 7 | 0.0 | 1.6 | 0.00 | 1.04 | 0.00 | 89 | 1014.5 | |
| 20260507001016 | 7 | 0.0 | 3.2 | 0.00 | 1.07 | 0.00 | 89 | 1014.5 | |
| 20260507000016 | 6 | 0.0 | 1.6 | 0.00 | 1.09 | 0.00 | 89 | 1014.5 | |
| 20260506235016 | 6 | 0.0 | 0.0 | 0.00 | 1.12 | 0.00 | 89 | 1014.5 | |
| 20260506234016 | 6 | 0.0 | 0.0 | 0.00 | 1.14 | 0.00 | 89 | 1014.5 | |
| 20260506233016 | 6 | 0.0 | 1.6 | 0.00 | 1.14 | 0.00 | 89 | 1014.5 | |
| 20260506232016 | 6 | 0.0 | 0.0 | 0.00 | 1.17 | 0.00 | 89 | 1014.4 | |
| 20260506231018 | 6 | 0.0 | 0.0 | 0.00 | 1.19 | 0.00 | 89 | 1014.4 | |
| 20260506230028 | 6 | 0.0 | 0.0 | 0.00 | 1.22 | 0.00 | 89 | 1014.4 | |
| 20260506225019 | 6 | 0.0 | 0.0 | 0.00 | 1.22 | 0.00 | 89 | 1014.4 | |
| 20260506224018 | 6 | 0.0 | 0.0 | 0.00 | 1.24 | 0.00 | 89 | 1014.4 | |
| 20260506223018 | 6 | 0.0 | 0.0 | 0.00 | 1.27 | 0.00 | 89 | 1014.2 | |
| 20260506222029 | 7 | 0.0 | 0.0 | 0.00 | 1.27 | 0.00 | 89 | 1014.2 | |
| 20260506221018 | 7 | 0.0 | 1.6 | 0.00 | 1.30 | 0.00 | 88 | 1014.1 | |
| 20260506220018 | 7 | 0.0 | 0.0 | 0.00 | 1.32 | 1.07 | 88 | 1014.1 | |
| 20260506215017 | 7 | 0.0 | 0.0 | 0.00 | 1.32 | 1.07 | 88 | 1014.0 | |
| 20260506214017 | 7 | 0.0 | 0.0 | 0.00 | 1.35 | 1.07 | 88 | 1014.0 | |
| 20260506213027 | 7 | 0.0 | 0.0 | 0.00 | 1.37 | 1.07 | 88 | 1013.9 | |
| 20260506212017 | 7 | 0.0 | 0.0 | 0.00 | 1.37 | 1.07 | 88 | 1014.0 | |
| 20260506211017 | 8 | 0.0 | 0.0 | 0.00 | 1.40 | 1.07 | 87 | 1013.9 | |
| 20260506210017 | 8 | 0.0 | 0.0 | 0.00 | 1.42 | 1.07 | 87 | 1013.9 | |
| 20260506205017 | 8 | 0.0 | 0.0 | 0.00 | 1.42 | 1.07 | 87 | 1013.8 | |
| 20260506204017 | 8 | 0.0 | 0.0 | 0.00 | 1.45 | 1.07 | 86 | 1013.8 | |
| 20260506203018 | 9 | 0.0 | 0.0 | 0.00 | 1.47 | 1.07 | 86 | 1013.7 | |
| 20260506202017 | 9 | 0.0 | 0.0 | 0.00 | 1.47 | 1.07 | 85 | 1013.6 | |
| 20260506201017 | 9 | 0.0 | 0.0 | 0.00 | 1.50 | 1.07 | 85 | 1013.5 | |
| 20260506200017 | 10 | 0.0 | 0.0 | 0.00 | 1.50 | 1.07 | 84 | 1013.4 | |
| 20260506195017 | 10 | 0.0 | 1.6 | 0.00 | 1.52 | 1.07 | 83 | 1013.3 | |
| 20260506194017 | 10 | 0.0 | 0.0 | 0.00 | 1.52 | 1.07 | 82 | 1013.1 | |
| 20260506193027 | 11 | 0.0 | 1.6 | 0.00 | 1.55 | 1.07 | 82 | 1012.9 | |
| 20260506192017 | 11 | 0.0 | 1.6 | 0.00 | 1.57 | 1.07 | 81 | 1012.8 | |
| 20260506191017 | 11 | 0.0 | 1.6 | 0.00 | 1.57 | 1.07 | 81 | 1012.6 | |
| 20260506190121 | 11 | 0.0 | 1.6 | 0.00 | 1.60 | 1.32 | 79 | 1012.6 | |
| 20260506185017 | 11 | 0.0 | 3.2 | 0.00 | 1.60 | 1.07 | 78 | 1012.5 | |
| 20260506184017 | 12 | 270 | 1.6 | 6.4 | 0.00 | 1.63 | 1.07 | 77 | 1012.4 |
| 20260506183027 | 12 | 23 | 1.6 | 4.8 | 0.00 | 1.63 | 1.07 | 76 | 1012.4 |
| 20260506182019 | 12 | 90 | 1.6 | 4.8 | 0.00 | 1.65 | 1.07 | 74 | 1012.2 |
| 20260506181023 | 12 | 338 | 1.6 | 6.4 | 0.00 | 1.65 | 1.07 | 75 | 1012.0 |
| 20260506180017 | 12 | 90 | 1.6 | 4.8 | 0.00 | 1.68 | 1.07 | 76 | 1011.9 |
| 20260506175018 | 12 | 0.0 | 3.2 | 0.00 | 1.70 | 1.07 | 75 | 1011.8 | |
| 20260506174016 | 12 | 0.0 | 3.2 | 0.00 | 1.70 | 1.07 | 77 | 1011.7 | |
| 20260506173017 | 12 | 293 | 1.6 | 8.0 | 0.00 | 1.73 | 1.07 | 76 | 1011.6 |
| 20260506172017 | 12 | 0.0 | 4.8 | 0.00 | 1.75 | 1.07 | 76 | 1011.6 | |
| 20260506171038 | 12 | 0.0 | 1.6 | 0.00 | 1.75 | 1.07 | 75 | 1011.5 | |
| 20260506170018 | 12 | 45 | 1.6 | 4.8 | 0.00 | 1.78 | 1.07 | 73 | 1011.5 |
| 20260506165019 | 12 | 0.0 | 4.8 | 0.00 | 1.80 | 1.07 | 75 | 1011.5 | |
| 20260506164028 | 12 | 0 | 1.6 | 6.4 | 0.00 | 1.83 | 1.07 | 72 | 1011.5 |
| 20260506163017 | 13 | 45 | 1.6 | 6.4 | 0.00 | 1.85 | 1.07 | 72 | 1011.4 |
| 20260506162018 | 13 | 0.0 | 1.6 | 0.00 | 1.88 | 1.07 | 74 | 1011.4 | |
| 20260506161019 | 13 | 90 | 1.6 | 3.2 | 0.00 | 1.88 | 1.07 | 71 | 1011.4 |
| 20260506160028 | 12 | 90 | 1.6 | 6.4 | 0.00 | 1.91 | 1.07 | 72 | 1011.4 |
| 20260506155019 | 12 | 68 | 1.6 | 9.7 | 0.00 | 1.93 | 1.07 | 76 | 1011.4 |
| 20260506154018 | 12 | 0 | 1.6 | 4.8 | 0.00 | 1.96 | 1.07 | 76 | 1011.4 |
| 20260506153017 | 12 | 68 | 1.6 | 4.8 | 0.00 | 1.98 | 1.07 | 76 | 1011.4 |
| 20260506152017 | 12 | 338 | 1.6 | 4.8 | 0.00 | 2.03 | 1.07 | 75 | 1011.3 |
| 20260506151018 | 12 | 293 | 1.6 | 6.4 | 0.00 | 2.06 | 1.07 | 75 | 1011.4 |
| 20260506150019 | 12 | 293 | 1.6 | 6.4 | 0.00 | 2.08 | 1.07 | 75 | 1011.4 |
| 20260506145018 | 13 | 338 | 1.6 | 4.8 | 0.00 | 2.11 | 1.07 | 73 | 1011.4 |
| 20260506144017 | 13 | 293 | 1.6 | 9.7 | 0.00 | 2.13 | 1.07 | 70 | 1011.4 |
| 20260506143017 | 13 | 338 | 1.6 | 4.8 | 0.00 | 2.13 | 1.07 | 69 | 1011.3 |
| 20260506142017 | 13 | 338 | 1.6 | 4.8 | 0.00 | 2.16 | 1.07 | 68 | 1011.2 |
| 20260506141017 | 14 | 315 | 1.6 | 4.8 | 0.00 | 2.18 | 1.07 | 70 | 1011.3 |
| 20260506140018 | 14 | 45 | 1.6 | 4.8 | 0.00 | 2.18 | 1.07 | 67 | 1011.2 |
| 20260506135017 | 15 | 0 | 1.6 | 6.4 | 0.00 | 2.21 | 1.07 | 64 | 1011.2 |
| 20260506134017 | 15 | 45 | 3.2 | 8.0 | 0.00 | 2.21 | 1.07 | 66 | 1011.2 |
| 20260506133017 | 15 | 158 | 1.6 | 9.7 | 0.00 | 2.24 | 1.07 | 68 | 1011.3 |
| 20260506132017 | 15 | 90 | 3.2 | 9.7 | 0.03 | 2.24 | 1.07 | 65 | 1011.3 |